sat.trackr.live / text

‹ back to catalog

STARLINK-37326

NORAD 68542 · 2026-070A

PAYLOAD ACTIVE UNKNOWN

§ Identity

Operator
Country
US
Launch date
2026-04-02
Launch site
AFETR
Launch vehicle
Mass (kg)
RCS (m²)

Purposes: comms

External: N2YO · Heavens-Above · Gunter

§ Orbital elements

Epoch: 2026-09-20T02:39:39.325248Z

Period
93.85 min
Inclination
53.1580°
Eccentricity
0.0000650
Mean motion
15.34368660 rev/d
Perigee alt
462.4 km
Apogee alt
463.2 km
Semi-major
6,840.9 km
B*
1.1472e-4
RAAN
175.8230°
Arg perigee
15.9658°
Mean anomaly
344.1365°
Rev number
2,637

§ Raw data

STARLINK-373261 68542U 26070A   26263.11087182  .00003498  00000+0  11472-3 0  99982 68542  53.1580 175.8230 0000650  15.9658 344.1365 15.34368660 26376

JSON: /api/v1/satellites/68542 · /tle

For live sub-satellite position, see the globe view (requires WebGL).

§ Visibility from observer

Set your observer location to see the next 7 days of passes ≥ 10°. The values pass through the URL so the page stays shareable.

No JS? Fill the form by hand. The geolocation button needs JavaScript.